GW3866 Weather Reports


time (UTC)temp
F
wind
direction
speed
knots
gust
knots
rain 1hr
in
rain 24hr
in
rain mn
in
humidity
%
barometer
mb
20260503200043 66 252 12.2 14.8 0.00 0.00 0.00 71 1014.2
20260503195535 66 257 11.3 15.6 0.00 0.00 0.00 71 1014.2
20260503195037 65 253 11.3 15.6 0.00 0.00 0.00 72 1014.3
20260503194554 65 251 13.0 15.6 0.00 0.00 0.00 73 1014.4
20260503194037 66 261 12.2 14.8 0.00 0.00 0.00 71 1014.4
20260503193540 66 250 12.2 13.9 0.00 0.00 0.00 70 1014.6
20260503193051 66 258 12.2 13.9 0.00 0.00 0.00 70 1014.7
20260503192540 66 257 11.3 13.0 0.00 0.00 0.00 70 1014.7
20260503192038 66 259 10.4 13.0 0.00 0.00 0.00 72 1014.7
20260503191547 65 258 10.4 13.0 0.00 0.00 0.00 73 1014.8
20260503191043 65 262 10.4 12.2 0.00 0.00 0.00 71 1014.9
20260503190541 65 262 9.6 12.2 0.00 0.00 0.00 72 1014.9
20260503190049 65 257 8.7 12.2 0.00 0.00 0.00 72 1015.0
20260503185540 64 260 9.6 13.0 0.00 0.00 0.00 71 1015.0
20260503185040 64 257 9.6 13.0 0.00 0.00 0.00 73 1015.0
20260503184544 63 240 10.4 13.0 0.00 0.00 0.00 72 1015.1
20260503184040 63 254 10.4 13.0 0.00 0.00 0.00 73 1015.1
20260503183540 63 261 11.3 13.0 0.00 0.00 0.00 71 1015.1
20260503183047 63 252 11.3 13.9 0.00 0.00 0.00 72 1015.1
20260503182541 63 245 11.3 14.8 0.00 0.00 0.00 73 1015.1
20260503182039 62 251 11.3 14.8 0.00 0.00 0.00 75 1015.1
20260503181556 62 254 11.3 13.0 0.00 0.00 0.00 75 1015.1
20260503181040 62 249 11.3 13.0 0.00 0.00 0.00 74 1015.1
20260503180540 62 249 11.3 13.0 0.00 0.00 0.00 76 1015.1
20260503180049 61 257 11.3 13.0 0.00 0.00 0.00 76 1015.2
20260503175540 61 251 12.2 13.9 0.00 0.00 0.00 77 1015.3
20260503175040 61 256 12.2 13.9 0.00 0.00 0.00 78 1015.3
20260503174551 60 258 12.2 14.8 0.00 0.00 0.00 78 1015.2
20260503174040 60 255 13.0 14.8 0.00 0.00 0.00 79 1015.3
20260503173538 60 253 13.0 15.6 0.00 0.00 0.00 79 1015.2
20260503173054 59 258 13.0 16.5 0.00 0.00 0.00 81 1015.2
20260503172541 59 254 13.9 16.5 0.00 0.00 0.00 80 1015.2
20260503172040 59 252 14.8 16.5 0.00 0.00 0.00 81 1015.3
20260503171547 59 254 14.8 16.5 0.00 0.00 0.00 81 1015.3
20260503171039 60 252 12.2 14.8 0.00 0.00 0.00 80 1015.4
20260503170540 60 253 9.6 11.3 0.00 0.00 0.00 80 1015.4
20260503150539 59 247 8.7 11.3 0.00 0.00 0.00 77 1016.0
20260503131044 57 231 4.3 13.9 0.00 0.00 0.00 73 1015.5
20260503130542 57 231 7.8 13.9 0.00 0.00 0.00 75 1015.5
20260503110540 54 0 0.0 2.6 0.00 0.00 0.00 82 1015.4
20260503081550 56 259 0.9 3.5 0.00 0.00 0.00 81 1015.4
20260503081036 56 259 1.7 3.5 0.00 0.00 0.00 82 1015.5
20260503080539 56 259 1.7 2.6 0.00 0.00 0.00 82 1015.4
20260503072537 58 0 0.0 0.0 0.00 0.00 0.00 83 1015.2
20260503072037 58 0 0.0 0.9 0.00 0.00 0.00 82 1015.1
20260503071555 58 0 0.0 1.7 0.00 0.00 0.00 81 1015.1
20260503071036 58 0 0.0 1.7 0.00 0.00 0.00 80 1015.0
20260503070536 59 0 0.0 3.5 0.00 0.00 0.00 80 1015.0
20260503055036 62 256 2.6 10.4 0.00 0.00 0.00 76 1014.6
20260503054549 62 239 5.2 10.4 0.00 0.00 0.00 76 1014.5
20260503054037 62 229 5.2 10.4 0.00 0.00 0.00 76 1014.5
20260503053536 61 278 2.6 7.0 0.00 0.00 0.00 76 1014.5
20260503053047 61 195 0.9 4.3 0.00 0.00 0.00 75 1014.5
20260503052537 61 229 1.7 4.3 0.00 0.00 0.00 76 1014.5
20260503052040 61 0 0.0 1.7 0.00 0.00 0.00 76 1014.5
20260503051550 61 255 0.0 1.7 0.00 0.00 0.00 76 1014.5
20260503051036 61 254 0.0 1.7 0.00 0.00 0.00 75 1014.5
20260503050538 62 0 0.0 0.9 0.00 0.00 0.00 75 1014.5
20260503050047 62 0 0.0 1.7 0.00 0.00 0.00 74 1014.5
20260503045539 62 251 0.0 2.6 0.00 0.00 0.00 73 1014.3
20260503045039 62 0 0.9 4.3 0.00 0.00 0.00 74 1014.4
20260503044545 62 250 1.7 7.0 0.00 0.00 0.00 74 1014.3
20260503044037 63 251 3.5 7.8 0.00 0.00 0.00 76 1014.3
20260503043537 63 250 3.5 9.6 0.00 0.00 0.00 74 1014.3
20260503043055 64 247 5.2 9.6 0.00 0.00 0.00 73 1014.3
20260503042537 64 236 8.7 9.6 0.00 0.00 0.00 71 1014.3
20260503042037 64 243 5.2 8.7 0.00 0.00 0.00 70 1014.2
20260503041622 64 252 3.5 11.3 0.00 0.00 0.00 68 1014.1
20260503041038 64 224 4.3 11.3 0.00 0.00 0.00 69 1014.1
20260503040537 64 243 9.6 11.3 0.00 0.00 0.00 68 1014.1
20260503040049 65 245 9.6 12.2 0.00 0.00 0.00 68 1014.1
20260503035536 65 244 10.4 12.2 0.00 0.00 0.00 66 1014.0
20260503035036 65 236 7.8 12.2 0.00 0.00 0.00 65 1014.0
20260503034550 66 241 10.4 12.2 0.00 0.00 0.00 65 1013.9
20260503034038 67 253 7.0 12.2 0.00 0.00 0.00 62 1013.8
20260503033543 68 245 7.0 13.9 0.00 0.00 0.00 59 1013.7
20260503033103 68 230 9.6 13.9 0.00 0.00 0.00 58 1013.7
20260503032536 68 222 9.6 15.6 0.00 0.00 0.00 57 1013.7
20260503032040 68 212 8.7 19.1 0.00 0.00 0.00 56 1013.6
20260503031548 69 214 11.3 19.1 0.00 0.00 0.00 55 1013.7
20260503031037 69 233 12.2 20.9 0.00 0.00 0.00 54 1013.6
20260503030536 69 243 13.0 20.9 0.00 0.00 0.00 53 1013.6
20260503030051 69 224 13.9 21.7 0.00 0.00 0.00 53 1013.6
20260503025536 69 185 14.8 21.7 0.00 0.00 0.00 52 1013.6
20260503025037 69 229 14.8 22.6 0.00 0.00 0.00 52 1013.5
20260503024554 70 222 14.8 22.6 0.00 0.00 0.00 52 1013.5
20260503024037 70 229 13.9 22.6 0.00 0.00 0.00 51 1013.5
20260503023536 70 228 13.0 22.6 0.00 0.00 0.00 51 1013.6
20260503023058 70 241 14.8 24.3 0.00 0.00 0.00 51 1013.5
20260503022536 70 236 13.9 26.1 0.00 0.00 0.00 52 1013.4
20260503022037 70 222 15.6 26.1 0.00 0.00 0.00 51 1013.5
20260503021551 70 241 15.6 26.9 0.00 0.00 0.00 51 1013.5
20260503021036 70 233 17.4 24.3 0.00 0.00 0.00 51 1013.5
20260503020536 70 218 17.4 26.1 0.00 0.00 0.00 50 1013.5
20260503020045 70 238 17.4 26.1 0.00 0.00 0.00 51 1013.5
20260503015539 70 224 13.9 26.1 0.00 0.00 0.00 51 1013.7
20260503015037 70 229 20.0 26.1 0.00 0.00 0.00 51 1013.7
20260503014548 70 232 18.2 26.1 0.00 0.00 0.00 50 1013.8
20260503014042 70 237 17.4 26.9 0.00 0.00 0.00 50 1013.8
20260503013541 70 220 15.6 26.9 0.00 0.00 0.00 49 1013.7
20260503013049 70 226 13.9 26.9 0.00 0.00 0.00 50 1013.8
20260503012537 70 219 18.2 26.9 0.00 0.00 0.00 50 1013.9
20260503012037 70 243 16.5 27.8 0.00 0.00 0.00 51 1013.9
20260503011601 70 233 19.1 27.8 0.00 0.00 0.00 49 1013.9
20260503011038 70 231 15.6 26.9 0.00 0.00 0.00 49 1014.0
20260503010536 70 256 17.4 26.9 0.00 0.00 0.00 50 1013.9
20260503010055 70 247 14.8 26.1 0.00 0.00 0.00 51 1014.0
20260503005543 70 233 16.5 26.1 0.00 0.00 0.00 52 1013.9
20260503005039 69 221 17.4 25.2 0.00 0.00 0.00 52 1014.0
20260503004546 69 234 16.5 24.3 0.00 0.00 0.00 54 1014.0
20260503004040 69 211 17.4 30.4 0.00 0.00 0.00 55 1014.0
20260503003541 69 241 18.2 30.4 0.00 0.00 0.00 55 1014.0
20260503003059 69 231 18.2 28.7 0.00 0.00 0.00 55 1014.1
20260503002540 69 199 16.5 28.7 0.00 0.00 0.00 53 1014.2
20260503002040 69 209 16.5 27.8 0.00 0.00 0.00 53 1014.1
20260503001546 69 235 15.6 22.6 0.00 0.00 0.00 54 1014.2
20260503001039 69 229 14.8 25.2 0.00 0.00 0.00 54 1014.4
20260503000540 69 246 15.6 25.2 0.00 0.00 0.00 54 1014.5
20260503000100 69 249 17.4 26.9 0.00 0.00 0.00 54 1014.5
20260502235537 68 204 16.5 26.9 0.00 0.00 0.00 56 1014.6
20260502235036 68 243 14.8 26.1 0.00 0.00 0.00 59 1014.7
20260502234546 67 243 18.2 26.1 0.00 0.00 0.00 59 1014.8
20260502234040 67 218 16.5 26.9 0.00 0.00 0.00 61 1014.9
20260502233536 67 229 17.4 26.9 0.00 0.00 0.00 62 1015.0
20260502233050 67 241 19.1 26.9 0.00 0.00 0.00 63 1015.1
20260502232536 67 236 18.2 28.7 0.00 0.00 0.00 62 1015.1
20260502232036 67 214 16.5 28.7 0.00 0.00 0.00 62 1015.1
20260502231549 67 220 16.5 25.2 0.00 0.00 0.00 61 1015.1
20260502231036 67 239 20.0 25.2 0.00 0.00 0.00 60 1015.2
20260502230539 67 239 18.2 25.2 0.00 0.00 0.00 60 1015.2
20260502230052 67 235 16.5 25.2 0.00 0.00 0.00 59 1015.3
20260502225539 68 246 18.2 25.2 0.00 0.00 0.00 58 1015.4
20260502225039 68 226 18.2 25.2 0.00 0.00 0.00 56 1015.4
20260502224554 67 245 15.6 25.2 0.00 0.00 0.00 59 1015.5
20260502224040 67 241 16.5 26.1 0.00 0.00 0.00 59 1015.6
20260502223538 67 222 19.1 26.1 0.00 0.00 0.00 61 1015.6
20260502223059 66 226 18.2 23.5 0.00 0.00 0.00 62 1015.7
20260502222538 67 233 13.9 21.7 0.00 0.00 0.00 63 1015.8
20260502222041 66 222 17.4 24.3 0.00 0.00 0.00 65 1015.9
20260502221548 66 233 17.4 24.3 0.00 0.00 0.00 65 1015.9
20260502221040 66 235 18.2 25.2 0.00 0.00 0.00 65 1015.9
20260502220538 65 230 16.5 25.2 0.00 0.00 0.00 67 1016.0
20260502220048 65 247 16.5 24.3 0.00 0.00 0.00 67 1016.1
20260502215538 64 246 16.5 22.6 0.00 0.00 0.00 68 1016.2
20260502215038 64 253 14.8 21.7 0.00 0.00 0.00 69 1016.4
20260502214544 64 245 14.8 21.7 0.00 0.00 0.00 70 1016.3
20260502214038 63 249 16.5 21.7 0.00 0.00 0.00 70 1016.4
20260502213538 63 238 15.6 20.9 0.00 0.00 0.00 72 1016.6
20260502213043 63 229 16.5 20.9 0.00 0.00 0.00 73 1016.7
20260502212538 62 241 13.0 20.9 0.00 0.00 0.00 73 1016.7
20260502212038 62 234 13.0 20.0 0.00 0.00 0.00 75 1016.8
20260502211551 61 232 13.0 20.0 0.00 0.00 0.00 74 1017.0
20260502211037 61 238 13.9 20.0 0.00 0.00 0.00 75 1017.0
20260502210537 61 233 13.0 20.0 0.00 0.00 0.00 78 1017.2
20260502210047 61 246 16.5 20.0 0.00 0.00 0.00 78 1017.1
20260502205537 60 242 14.8 20.9 0.00 0.00 0.00 80 1017.2
20260502205038 60 245 16.5 20.9 0.00 0.00 0.00 78 1017.2
20260502204548 61 223 14.8 20.0 0.00 0.00 0.00 78 1017.4
20260502204037 61 249 12.2 20.0 0.00 0.00 0.00 79 1017.4
20260502203538 60 237 15.6 20.0 0.00 0.00 0.00 79 1017.5
20260502203047 60 231 15.6 20.0 0.00 0.00 0.00 79 1017.6
20260502202538 60 237 13.9 18.2 0.00 0.00 0.00 79 1017.7
20260502202038 60 243 14.8 19.1 0.00 0.00 0.00 78 1017.7
20260502201544 61 233 14.8 19.1 0.00 0.00 0.00 79 1017.7
20260502201038 60 243 15.6 20.0 0.00 0.00 0.00 79 1017.7
20260502200538 61 247 15.6 20.0 0.00 0.00 0.00 77 1017.7